Terminal Aerodrome Forecast
Issued by NWS Green Bay, WI

Home | Current Version | Previous Version | Graphics & Text | Print | Product List | Glossary On
Versions: 1 2 3 4 5 6 7 8 9 10 11 12 13 14 15 16 17 18 19 20 21 22 23 24 25 26 27 28 29 30 31 32 33 34 35 36 37 38 39 40 41 42 43
000
FTUS43 KGRB 061723
TAFGRB
TAF
KGRB 061723Z 0618/0718 19010KT 4SM HZ SCT025 OVC100
      TEMPO 0618/0622 2SM SHRA BR BKN025
     FM062200 18012G18KT P6SM -SHRA SCT012 OVC040
      TEMPO 0622/0702 1SM +TSRA BR BKN012CB
     FM070200 34012KT 5SM SHRA BR BKN008 OVC040
     FM070500 34012G18KT 6SM -SHRA BR BKN015
     FM070800 34011KT P6SM SCT015 OVC030
     FM071400 36011KT P6SM SCT030=

USA.gov is the U.S. government's official web portal to all federal, state and local government web resources and services.